Theta_e
330 337 341 352 352 353 352 351 350 351 351 351 356 356 355 355 354 354 353 354 354 356 355 353 353 352 350 349 351 352 352 351 350 350 350 351 349 347 346 346 345 341 345
337 339 342 351 352 352 352 351 351 352 354 353 353 355 354 355 354 353 353 353 354 353 353 351 351 350 349 350 351 350 350 349 348 349 349 348 348 347 345 344 344 341 342
333 340 345 349 352 352 351 351 352 353 354 355 354 353 354 354 353 351 349 347 346 345 351 351 350 348 349 350 350 349 349 348 347 347 346 341 341 345 344 343 341 341 339
331 332 336 344 349 352 351 350 351 354 353 352 353 352 351 352 352 350 348 346 344 342 344 349 348 346 349 349 348 348 348 347 346 345 340 339 339 342 341 340 339 338 337
325 328 332 338 341 347 350 350 350 352 351 350 349 351 350 350 349 349 348 348 347 347 346 342 347 348 348 346 347 347 347 346 344 341 337 337 337 340 340 338 336 335 334
323 325 329 334 337 340 344 349 349 348 348 348 347 348 349 348 349 349 347 347 348 349 345 345 347 348 346 345 345 345 344 343 342 337 337 339 335 341 339 337 335 334 335
319 323 324 332 334 335 338 344 344 345 346 347 347 347 347 347 348 348 346 347 347 348 349 348 349 346 345 344 344 342 340 342 339 336 334 334 335 339 338 336 335 333 333
317 319 321 328 330 332 335 340 343 344 342 342 346 346 347 346 346 346 346 346 345 345 346 346 346 345 344 343 343 340 337 339 338 334 332 333 339 338 337 334 332 331 333
317 317 317 319 326 329 332 334 335 341 342 339 343 344 345 344 345 346 345 345 343 342 344 344 344 343 343 342 339 336 335 340 334 333 334 334 340 337 334 333 331 329 332
310 311 314 315 319 323 327 332 334 338 343 344 342 344 343 343 345 345 344 343 342 343 344 344 343 342 341 339 337 334 334 339 334 332 333 335 338 336 334 332 330 329 331
308 309 312 314 315 318 323 327 330 333 338 344 343 342 340 340 340 342 341 341 342 341 342 343 341 340 338 336 335 335 334 330 329 331 332 337 336 335 334 331 330 329 329
304 306 308 311 313 315 318 322 325 329 332 338 340 340 339 338 338 339 341 341 341 339 341 341 339 337 336 329 327 332 326 331 331 330 332 336 336 333 334 330 329 328 332
303 304 306 309 312 312 314 319 320 323 328 333 338 338 338 340 339 338 339 338 338 340 340 339 337 334 331 329 328 326 327 328 328 327 332 334 336 333 332 330 330 329 331
301 302 304 308 309 309 311 315 317 322 326 330 333 338 338 339 337 337 337 338 337 338 338 337 335 332 330 330 328 327 328 326 324 327 330 333 334 332 331 331 328 329 327
299 301 303 306 307 307 308 311 314 318 325 326 330 329 337 338 336 336 335 337 337 338 338 335 335 332 331 330 328 327 328 326 325 325 325 331 332 332 330 331 329 328 329
299 300 302 304 305 306 307 308 310 314 320 325 322 322 325 338 337 335 335 335 336 337 338 336 335 333 332 331 328 330 326 325 324 323 324 327 329 330 330 332 330 328 328
298 300 301 302 305 305 305 305 308 310 314 319 320 323 325 333 335 335 334 334 336 336 336 336 335 334 332 331 329 328 328 324 323 321 321 320 324 327 329 331 330 329 328
296 297 299 302 303 304 304 304 305 307 308 311 319 318 319 323 332 334 333 333 334 335 334 334 334 332 330 328 328 328 329 325 322 321 320 319 318 326 327 328 329 330 328
295 296 297 299 301 302 304 303 304 304 306 309 314 313 315 318 321 335 333 333 334 333 333 333 331 332 330 327 327 327 327 324 322 322 320 319 317 318 323 326 326 327 328
293 295 297 298 299 301 302 302 302 302 304 306 309 311 313 313 317 324 334 333 333 332 331 332 331 331 331 328 329 327 328 327 323 321 319 320 319 319 319 322 322 323 324
292 294 295 296 297 300 299 298 298 299 302 304 305 308 310 311 313 317 325 333 334 332 331 330 331 330 328 327 323 321 321 322 325 323 320 319 318 319 318 318 318 316 321
289 292 294 295 296 298 299 298 298 299 301 302 303 306 307 309 310 314 316 325 334 333 332 331 330 327 327 327 321 319 316 318 319 322 320 320 318 319 318 318 317 316 316
286 289 292 294 295 297 297 298 298 298 298 299 300 302 304 306 309 311 313 315 332 333 331 331 329 328 325 327 324 319 313 313 316 320 320 321 318 317 318 318 317 317 317
285 288 290 292 293 296 296 295 296 295 294 297 299 301 302 304 307 309 309 311 319 332 331 331 330 327 326 323 324 323 321 319 314 313 319 321 320 315 317 317 317 317 317
285 286 288 290 292 294 295 295 295 295 296 297 298 299 300 302 304 307 308 309 312 321 331 330 330 328 328 326 324 322 320 319 320 316 313 317 321 320 318 318 318 317 317
285 285 287 289 291 293 293 295 295 295 294 295 296 297 298 300 301 304 306 308 310 313 319 330 330 329 327 327 327 324 321 318 317 317 315 316 317 319 321 320 317 318 317
Wind_Speed
15 15 19 7 9 8 9 8 10 11 12 13 13 14 16 19 20 20 20 20 20 19 17 14 14 16 18 20 20 20 19 20 20 22 22 21 23 23 23 20 19 16 21
13 12 18 6 7 6 8 7 8 9 11 13 11 15 16 19 20 19 20 19 17 17 16 15 15 15 18 19 18 18 18 19 21 21 20 20 22 23 23 20 18 17 20
14 12 9 9 6 6 8 6 6 10 10 11 12 14 15 17 18 19 20 19 17 15 12 14 15 15 18 17 16 17 19 21 21 21 20 11 13 21 21 20 19 19 20
12 13 14 25 8 8 8 7 5 9 9 9 11 13 14 16 19 19 18 17 19 11 5 10 14 14 15 14 14 15 18 19 21 20 11 10 13 19 19 19 18 18 19
14 13 16 22 22 15 8 6 5 7 7 7 10 12 13 14 16 17 17 16 15 16 16 8 10 13 11 11 11 11 14 15 16 15 11 9 9 15 17 17 17 17 16
13 13 12 20 21 20 22 6 4 4 5 6 8 10 13 12 14 14 14 9 9 16 18 17 9 11 10 11 10 8 12 12 13 11 11 14 9 16 19 19 17 17 16
14 13 14 23 23 22 22 20 5 4 2 5 6 9 10 10 11 14 14 9 9 11 15 16 13 10 9 9 8 6 7 11 7 10 11 10 12 17 18 18 17 16 16
12 12 13 19 24 22 22 23 20 5 3 3 5 8 9 10 11 15 15 12 9 6 14 13 11 9 9 8 9 8 8 5 12 10 9 8 17 16 16 17 16 16 16
6 7 6 12 16 19 17 20 20 20 5 2 5 7 10 10 12 16 16 16 15 4 10 13 10 9 7 8 8 8 7 16 11 7 9 8 18 17 14 15 17 16 15
12 13 14 13 10 11 9 18 19 23 7 4 3 6 7 9 14 18 16 16 13 13 9 13 9 9 8 7 6 6 6 12 11 9 6 9 18 17 15 14 15 16 16
12 14 14 12 14 12 9 12 15 19 19 10 4 5 7 5 9 15 13 16 14 13 10 12 11 9 8 5 5 4 8 4 5 5 6 18 19 18 16 15 15 16 15
15 16 14 13 14 14 12 10 10 11 9 10 6 4 5 7 7 8 12 15 13 12 11 12 12 10 6 2 3 2 3 9 7 6 7 17 18 18 16 16 15 16 15
13 13 16 14 14 15 12 9 7 6 7 8 11 4 5 7 7 6 5 5 5 8 4 7 7 5 5 4 3 2 4 8 6 5 9 16 19 19 16 16 15 15 15
16 17 17 15 16 17 10 8 7 7 7 7 10 11 4 6 7 8 7 8 7 6 8 7 5 6 5 6 5 4 7 7 5 5 7 14 17 19 17 16 16 15 15
17 18 18 16 15 15 13 11 9 9 7 9 10 13 7 4 7 8 7 6 6 6 6 7 7 7 6 6 5 4 10 10 9 6 4 12 14 17 16 16 15 16 15
17 18 18 18 17 15 13 15 12 10 10 8 9 11 13 3 6 8 7 7 5 6 6 8 7 8 6 4 4 6 12 11 10 9 5 7 12 15 13 15 16 15 15
14 17 18 18 18 17 16 14 12 11 11 9 9 12 14 10 4 7 7 6 6 6 6 7 4 1 3 4 7 6 10 11 10 9 7 5 7 11 13 15 15 14 15
15 17 17 17 18 18 15 12 10 10 11 10 9 10 14 13 8 5 6 8 5 5 6 3 5 2 3 5 4 5 8 10 11 10 7 6 5 5 8 13 13 14 15
12 15 16 17 17 15 13 11 12 14 10 10 8 9 13 13 13 4 5 6 8 5 5 6 2 2 2 4 5 5 5 10 11 10 10 8 7 5 4 10 13 12 14
10 13 13 13 15 14 11 10 10 9 9 10 9 9 14 11 14 12 4 6 7 6 6 5 7 7 4 5 6 4 3 5 8 9 11 9 8 8 6 7 6 7 13
12 14 13 15 15 10 11 11 10 11 10 9 10 13 13 13 14 12 8 3 5 7 7 9 5 8 6 3 4 3 4 4 4 7 9 9 9 10 8 7 5 4 6
11 13 14 14 15 10 8 7 8 9 9 8 9 11 13 13 14 12 11 8 6 4 7 8 8 2 2 4 3 4 2 2 2 3 5 10 11 9 9 10 9 8 7
9 9 13 13 14 10 10 7 8 8 8 9 10 10 12 13 12 12 12 11 5 5 5 7 6 6 6 5 5 4 3 3 3 1 3 5 10 8 9 11 11 10 9
7 8 9 11 13 11 10 10 13 10 11 11 9 10 9 12 12 12 13 12 12 5 6 7 7 7 6 5 2 1 1 4 4 1 1 3 5 7 11 9 11 11 11
7 7 7 11 13 9 10 11 10 11 8 9 9 13 12 10 12 13 12 13 12 8 6 7 8 10 9 8 8 4 2 1 2 3 3 4 2 5 8 10 10 10 11
6 7 7 8 12 9 8 11 12 12 13 10 11 10 10 11 10 11 13 9 10 9 9 6 8 9 9 7 8 9 6 5 4 4 3 6 8 4 7 7 10 10 8
Wind_Direction
319 307 345 30 42 48 70 75 91 102 107 108 99 99 100 103 103 104 105 106 111 109 110 106 102 104 105 106 102 102 103 105 104 98 98 102 103 102 95 88 89 92 92
328 319 309 81 64 62 66 82 91 104 108 112 104 101 100 104 107 104 99 96 98 104 113 114 109 108 110 107 106 107 107 104 95 96 99 99 102 98 97 91 87 92 95
8 351 4 99 83 74 74 73 93 108 104 113 113 107 106 109 110 109 105 101 92 76 93 116 112 113 112 110 111 115 114 105 100 95 93 94 93 95 95 91 92 95 96
1 15 12 27 47 72 77 67 86 104 113 122 117 118 116 119 119 118 114 114 117 143 118 97 114 124 114 116 118 125 121 121 114 110 101 98 99 100 101 101 102 106 105
4 22 10 29 30 23 84 78 77 92 105 115 121 125 119 121 123 120 116 122 142 156 155 133 135 125 124 125 131 131 137 124 113 109 107 99 100 107 107 110 107 106 108
4 6 12 24 31 28 15 84 77 94 113 123 126 129 129 122 131 127 119 120 147 149 151 147 156 139 138 144 129 144 132 92 112 106 105 104 105 114 108 104 108 109 112
13 358 357 20 21 24 19 1 52 103 101 129 131 127 122 127 135 131 125 132 134 149 148 151 144 141 151 145 118 112 84 83 96 103 105 109 112 114 115 115 115 117 118
23 15 347 21 13 14 18 20 3 15 116 143 146 139 130 129 128 126 122 112 111 162 151 133 131 142 164 136 137 115 81 87 117 108 112 113 115 119 121 121 123 122 121
16 21 28 3 11 358 22 17 3 351 5 116 157 158 142 143 146 132 132 134 127 71 146 134 136 152 170 161 154 132 104 117 121 123 122 121 116 122 126 125 131 131 124
29 21 21 21 20 352 357 12 9 355 337 0 163 163 162 152 147 142 143 144 147 138 159 136 148 158 177 183 167 166 114 139 131 128 128 123 124 125 131 135 134 138 136
31 28 15 18 16 3 355 6 13 0 353 338 325 169 131 137 137 142 152 154 155 150 160 144 152 162 174 204 226 194 91 145 127 128 131 131 132 132 141 140 139 135 141
31 21 14 13 11 13 352 3 5 2 350 346 318 205 144 142 145 149 156 161 155 164 163 153 153 157 156 200 274 317 82 126 128 137 134 137 135 135 141 146 148 147 143
33 22 13 16 12 11 1 358 1 358 353 337 346 248 161 147 150 154 154 156 151 160 160 154 157 167 176 194 244 266 100 115 123 132 142 137 138 138 146 148 150 149 138
26 20 10 20 17 8 358 358 335 353 354 349 337 324 157 164 165 158 167 166 167 174 170 171 173 176 195 202 198 215 117 122 130 132 139 139 140 140 157 159 153 153 153
24 18 10 18 19 5 356 354 347 349 3 352 354 349 329 179 173 165 164 163 171 173 176 167 181 185 201 212 191 157 141 128 141 128 130 140 144 141 161 161 161 161 158
19 18 9 13 11 6 2 1 359 359 350 4 355 340 335 230 175 170 164 170 184 171 167 174 179 189 199 192 165 139 135 136 148 128 135 144 146 151 161 164 164 167 158
16 14 11 8 1 3 11 7 5 346 352 360 351 343 343 338 192 175 166 172 176 179 164 180 171 190 182 176 145 148 143 137 142 138 141 142 142 161 167 164 164 166 167
16 16 9 6 3 357 13 5 1 345 359 343 353 357 338 344 319 192 176 174 164 163 175 169 189 239 187 170 149 140 130 138 142 147 145 140 137 161 169 160 169 169 170
17 15 11 7 356 2 3 7 353 355 357 348 4 347 344 347 346 201 195 190 175 165 169 183 161 151 193 184 148 137 128 141 149 154 158 150 153 151 163 169 171 178 173
13 12 11 7 356 1 1 5 358 353 351 345 359 352 350 349 349 346 191 184 174 172 174 159 186 194 203 182 139 102 101 133 157 158 164 164 167 168 168 168 182 182 175
15 12 9 8 354 9 1 2 357 354 351 346 350 349 357 352 352 350 346 166 169 185 177 190 169 200 174 167 103 59 34 48 144 158 167 166 173 181 169 171 169 173 192
18 14 9 6 355 3 3 359 355 346 347 349 343 351 351 353 351 350 340 326 179 173 173 175 180 145 132 120 133 110 141 10 353 123 171 172 176 177 179 181 182 181 176
17 10 7 6 352 357 353 352 355 353 353 348 353 352 349 349 351 352 348 340 249 175 182 181 170 168 180 154 178 134 145 182 130 224 193 177 169 172 178 184 188 188 187
8 10 359 3 350 354 346 356 1 360 355 351 340 343 346 345 349 353 352 337 338 182 186 184 171 157 135 172 154 229 123 137 162 167 275 211 164 170 177 185 192 196 189
16 7 1 358 346 341 360 354 352 359 349 345 345 344 347 349 347 355 351 346 340 330 188 185 168 176 179 181 189 155 144 131 152 145 168 219 225 200 182 186 191 199 192
11 7 6 4 342 336 3 350 350 351 354 350 352 346 346 346 344 345 346 340 335 338 333 197 189 187 188 191 190 182 168 176 184 147 156 190 214 221 210 188 190 201 189